{"data":{"norad_id":67934,"intl_designator":"2026-037C","name":"STARLINK-36861","alt_names":[],"object_type":"PAYLOAD","status":"ACTIVE","operator":null,"country":"US","launch_date":"2026-02-24","launch_site_code":"AFETR","launch_vehicle":null,"mission":null,"orbit_class":"UNKNOWN","rcs_meters":null,"size_class":null,"mass_kg":null,"dimensions":null,"purposes":["comms"],"wikipedia_slug":null,"has_3d_model":false,"image_url":null,"decayed_at":null,"tle_current":{"epoch":"2026-05-24T23:22:26.345856Z","epoch_age_seconds":71139,"freshness":"FRESH","line1":"1 67934U 26037C   26144.97391604  .00009953  00000+0  37076-3 0  9994","line2":"2 67934  43.0008 120.2331 0001053 279.8053  80.2680 15.27574742 15005","mean_motion":15.27574742,"eccentricity":0.0001053,"inclination_deg":43.0008,"raan_deg":120.2331,"arg_perigee_deg":279.8053,"mean_anomaly_deg":80.268,"bstar":0.00037076,"rev_number":1500,"period_min":94.267073185215,"perigee_km":482.34235587457,"apogee_km":483.78732498217,"semimajor_km":6861.2018404284,"source":"CELESTRAK","updated_at":"2026-05-25T13:38:21.766422Z"}}}